IRIDIUM 111

Last updated on Sat Aug 15 2026 00:03:07 GMT+0000 (Coordinated Universal Time)

1 41926U 17003K 26226.58687854 -.00000028 00000+0 -16936-4 0 9992 2 41926 86.3912 63.9449 0002092 89.3096 270.8340 14.34217166501629
UTC large
Height (km)
Speed (km/s)
/
Latitude / Longitude
Inclination (degrees)
Orbital Period (minutes)
Azimuth
Elevation
Range (km)
Doppler Factor

Next 0 passes for location: London (51.5072 / 0.1276)

No passes found over London.